User: anonymous   Login
Location: Dayton
(39.7590°N, 84.1920°W)
Time: 21:24:17
(UTC-04:00)
Language:

Cosmos 1939 Rocket - Orbit

View from above orbital plane
View from above orbital plane
View from above satellite
View from above satellite

Ground track
Ground track

The orbit data is extracted from the following two-line orbital elements,

1 19046U 88032B   17149.61336946 +.00001027 +00000-0 +81362-4 0  9995
2 19046 097.5301 197.0674 0036810 033.9371 326.4198 15.02210998569566
Epoch (UTC): 29 May 2017 14:43:15
Eccentricity: 0.0036810
inclination: 97.5301°
perigee height: 534 km
apogee height: 585 km
right ascension of ascending node: 197.0674°
argument of perigee: 33.9371°
revolutions per day: 15.02210998
mean anomaly at epoch: 326.4198°
orbit number at epoch: 56956

The dashed part of the orbit path shows where the satellite is in the earth's shadow,  

DLR